Weather History for Broken Bow, NE

Change the Weather History Date:

Saturday, November 16, 2013

  Actual Average Record
Temperature  
Mean Temperature 44 °F 36 °F  
Max Temperature 61 °F 48 °F 81 °F (1941)
Min Temperature 27 °F 23 °F -4 °F (2000)
Degree Days  
Heating Degree Days 21 29  
Month to date heating degree days 412 408  
Cooling Degree Days 0 0  
Month to date cooling degree days 0 0  
Year to date cooling degree days 814 768  
Moisture  
Dew Point 27 °F    
Average Humidity 59    
Maximum Humidity 100    
Minimum Humidity 18    
Precipitation  
Precipitation 0.00 in 0.04 in 0.97 in (1971)
Sea Level Pressure  
Sea Level Pressure 29.37 in    
Wind  
Wind Speed 9 mph (WNW)    
Max Wind Speed 25 mph    
Max Gust Speed 31 mph    
Visibility 10 miles    
Events      
T = Trace of Precipitation, MM = Missing Value Source: NWS Daily Summary

Daily Weather History Graph

Daily Weather History Graph

Search for Another Location

Airport:

Trip Planner

Search our weather history database for the weather conditions in past years. The results will help you decide how hot, cold, wet, or windy it might be!

Date:

Astronomy

Nov. 16, 2013 Rise Set
Actual Time 7:28 AM CST 5:17 PM CST
Civil Twilight 6:58 AM CST 5:47 PM CST
Nautical Twilight 6:25 AM CST 6:21 PM CST
Astronomical Twilight 5:52 AM CST 6:53 PM CST
Moon 4:54 PM CST (11/16) 6:25 AM CST (11/16)
Length of Visible Light 10h 48m
Length of Day
9h 49m
Waxing Gibbous, 99% of the Moon is Illuminated
Nov 16
Waxing Gibbous
Nov 17
Full
Nov 25
Last Quarter
Dec 2
New
Dec 9
First Quarter

Hourly Weather History & Observations

Time (CST) Temp. Windchill Dew Point Humidity Pressure Visibility Wind Dir Wind Speed Gust Speed Precip Events Conditions
12:53 AM 28.0 °F 24.2 °F 27.0 °F 96% 29.44 in 10.0 mi ESE 3.5 mph - N/A   Clear
1:53 AM 28.0 °F 22.8 °F 28.0 °F 100% 29.41 in 10.0 mi East 4.6 mph - N/A   Clear
2:53 AM 33.1 °F - 33.1 °F 100% 29.37 in 10.0 mi Calm Calm - N/A   Clear
3:53 AM 34.0 °F 31.0 °F 33.1 °F 96% 29.33 in 9.0 mi SSE 3.5 mph - N/A   Clear
4:53 AM 35.1 °F - 33.1 °F 92% 29.34 in 9.0 mi Calm Calm - N/A   Clear
5:53 AM 35.1 °F - 34.0 °F 96% 29.34 in 10.0 mi Calm Calm - N/A   Mostly Cloudy
6:53 AM 37.0 °F 30.4 °F 35.1 °F 93% 29.34 in 10.0 mi West 9.2 mph - N/A   Mostly Cloudy
7:53 AM 42.1 °F 36.6 °F 32.0 °F 67% 29.35 in 10.0 mi WNW 9.2 mph - N/A   Overcast
8:53 AM 44.1 °F 36.5 °F 26.1 °F 49% 29.37 in 10.0 mi WNW 17.3 mph - N/A   Clear
9:53 AM 48.0 °F - 25.0 °F 41% 29.37 in 10.0 mi WNW 16.1 mph 25.3 mph N/A   Clear
10:53 AM 53.1 °F - 21.0 °F 29% 29.39 in 10.0 mi WNW 19.6 mph 26.5 mph N/A   Clear
11:53 AM 55.9 °F - 19.0 °F 24% 29.36 in 10.0 mi West 19.6 mph 26.5 mph N/A   Clear
12:53 PM 57.9 °F - 16.0 °F 19% 29.37 in 10.0 mi WNW 20.7 mph 28.8 mph N/A   Clear
1:53 PM 59.0 °F - 15.1 °F 18% 29.34 in 10.0 mi WNW 20.7 mph 29.9 mph N/A   Clear
2:53 PM 59.0 °F - 17.1 °F 20% 29.34 in 10.0 mi NW 13.8 mph - N/A   Clear
3:53 PM 57.9 °F - 21.9 °F 25% 29.34 in 10.0 mi West 6.9 mph - N/A   Clear
4:53 PM 50.0 °F - 25.0 °F 38% 29.37 in 10.0 mi WSW 5.8 mph - N/A   Clear
5:53 PM 45.0 °F - 27.0 °F 49% 29.40 in 10.0 mi Calm Calm - N/A   Clear
6:53 PM 37.0 °F - 26.1 °F 65% 29.43 in 10.0 mi Calm Calm - N/A   Clear
7:53 PM 37.0 °F 32.4 °F 28.0 °F 70% 29.40 in 10.0 mi SE 5.8 mph - N/A   Clear
8:53 PM 36.0 °F 33.3 °F 28.9 °F 76% 29.42 in 10.0 mi North 3.5 mph - N/A   Clear
9:53 PM 39.9 °F 35.8 °F 28.9 °F 65% 29.40 in 10.0 mi North 5.8 mph - N/A   Partly Cloudy
10:53 PM 45.0 °F 41.2 °F 28.0 °F 52% 29.39 in 10.0 mi NNW 6.9 mph - N/A   Mostly Cloudy
11:53 PM 48.0 °F - 28.9 °F 48% 29.39 in 10.0 mi WNW 12.7 mph - N/A   Overcast